Find Starlink 34527

NORAD ID: 64482 Int'l Des: 2025-133 Owner: SPXS Country: US Constellation: starlink operational
LEOCIRCULAR

現在のビュー

3D地球を読み込み中...

About Starlink 34527

Starlink 34527 (NORAD 64482) is a starlink constellation satellite (v2 mini) launched Jun 23, 2025 by SPXS of US. It operates in LEO, CIRCULAR orbit with a mass of 575.00 kg.

Starlink 34527について

説明を読み込み中...

次回通過

Passes for default location (London). Set your location on the main map for personalized predictions.

高度履歴

Loading altitude history...

軌道要素

1 64482U 25133L 26195.16668980 .00014064 00000-0 42681-3 0 9994
2 64482 53.1589 248.8315 0000386 38.2189 175.7680 15.34382487 5853
Epoch: Jul 14, 2026 • Age: 12 hours

現在のステータス

高度 466.8 km
遠地点 / 近地点 N/A
速度 7.63 km/s
衛星直下点 -14.35°S, 101.7°W
打ち上げ日 Jun 23, 2025
運用期間 1 year
タイプ internet

技術仕様

分類 Payload
質量 575.00 kg
乾燥質量 530.00 kg
総質量 575.00 kg
長さ 0.30 m
直径 4.10 m
スパン 29.00 m
形状 Box + pan
製造者 SPXS
バスタイプ Starlink V2MO
フェーズステータス In Orbit
所有者/国 SPXS/US

Most Searched